Hourly Weather Roundup
Issued by NWS Central Illinois

Home | Current Version | Previous Version | Text Only | Print | Product List | Glossary On
Versions: 1 2 3 4 5 6 7 8 9 10 11 12 13 14 15 16 17 18 19 20 21 22 23 24 25 26 27 28 29 30 31 32 33 34 35 36 37 38 39 40 41 42 43 44 45 46 47 48 49 50
000
NZUS43 KILX 211710
HWRILX

AREA WEATHER ROUNDUP
NATIONAL WEATHER SERVICE, LINCOLN IL
1100 AM CST SUN DEC 21 2014


CITY           SKY/WX    TMP DP  RH WIND       PRES   REMARKS
BLOOMINGTON    CLOUDY    36  32  85 S14       30.18F FOG     WCI  27
CHAMPAIGN      CLOUDY    36  29  75 S10       30.21F WCI  28
DECATUR        CLOUDY    35  29  78 S10       30.21F HAZE    WCI  27
FLORA          SUNNY     37  29  71 SE7       30.24F WCI  32
GALESBURG      CLOUDY    38  34  87 S13       30.11F WCI  30
JACKSONVILLE   CLOUDY    40  34  78 SE13      30.15F WCI  33
LACON          CLOUDY    37  31  81 S10       30.15F WCI  29
LAWRENCEVILLE  SUNNY     36  29  75 SE6       30.25F HAZE    WCI  31
LITCHFIELD     CLOUDY    36  30  79 SE9       30.19F WCI  29
$$


CITY           SKY/WX    TMP DP  RH WIND       PRES   REMARKS
LINCOLN        CLOUDY    38  32  80 S12       30.20F WCI  31
MACOMB         CLOUDY    39  36  89 S13G20    30.14F WCI  31
MATTOON        CLOUDY    34  27  75 SE10      30.22F WCI  26
MT CARMEL AP   SUNNY     37  30  75 SE8       30.24F WCI  31
OLNEY-NOBLE AP MOSUNNY   36  30  80 SE7       30.24F WCI  30
PARIS          CLOUDY    34  31  89 SE9       30.24F WCI  27
PEORIA         CLOUDY    40  31  70 S15       30.15F WCI  32
PONTIAC        CLOUDY    36  32  85 S13       30.19F WCI  27
RANTOUL        CLOUDY    35  30  82 S13       30.21F WCI  27
ROBINSON       MOSUNNY   35  30  81 SE8       30.26F WCI  29
SPRINGFIELD    CLOUDY    38  31  76 S14       30.19F WCI  30
TAYLORVILLE    CLOUDY    34  30  86 SE12      30.20F WCI  25
$$

...REGIONAL REPORTS...


CITY           SKY/WX    TMP DP  RH WIND       PRES   REMARKS
CHICAGO O`HARE CLOUDY    34  28  79 S13       30.17F WCI  25
KANKAKEE       CLOUDY    33  28  81 S12       30.21F WCI  25
MOLINE         CLOUDY    39  33  79 SE10      30.09F WCI  32
MOUNT VERNON   MOSUNNY   39  28  65 SE7       30.24F WCI  34
PITTSFIELD     CLOUDY    40  36  83 SE12      30.13F WCI  34
QUINCY         CLOUDY    41  34  76 S12       30.09F WCI  34
ROCKFORD       CLOUDY    35  30  82 S16       30.15F HAZE    WCI  25
$$


CITY           SKY/WX    TMP DP  RH WIND       PRES   REMARKS
BURLINGTON     LGT RAIN  40  35  83 S13       30.07F WCI  32
CEDAR RAPIDS   CLOUDY    39  35  86 S14G22    30.01F WCI  31
DES MOINES     CLOUDY    40  34  79 S17G28    29.94F WCI  31
KIRKSVILLE     CLOUDY    41  38  89 S10       30.04F WCI  35
OTTUMWA        CLOUDY    40  36  86 S20       30.00F WCI  30
ST LOUIS       CLOUDY    42  32  67 SE13      30.18F
$$


CITY           SKY/WX    TMP DP  RH WIND       PRES   REMARKS
TERRE HAUTE    MOSUNNY   34  27  75 SE8       30.24F WCI  27
EVANSVILLE     SUNNY     38  29  70 E5        30.25F WCI  34
INDIANAPOLIS   PTSUNNY   32  25  75 SE9       30.24F WCI  24
LAFAYETTE      MOSUNNY   35  27  72 S9        30.24F WCI  28
MADISON        CLOUDY    34  31  88 S13       30.08F FOG     WCI  25
MILWAUKEE      CLOUDY    36  28  73 S9        30.14F WCI  29
$$




USA.gov is the U.S. government's official web portal to all federal, state and local government web resources and services.